Time,TemperatureF,DewpointF,PressureIn,WindDirection,WindDirectionDegrees,WindSpeedMPH,WindSpeedGustMPH,Humidity,HourlyPrecipIn,Conditions,Clouds,dailyrainin,SoftwareType,DateUTC
2013-09-08 00:01:00,80.3,64.7,29.88,SSW,203,5.0,-999.0,59,0.00,,,0.00,Wunderground v.1.15,2013-09-08 05:01:00,
2013-09-08 00:04:00,80.3,64.7,29.88,SSW,203,5.0,-999.0,59,0.00,,,0.00,Wunderground v.1.15,2013-09-08 05:04:00,
2013-09-08 00:06:00,80.3,64.7,29.88,SSW,203,5.0,-999.0,59,0.00,,,0.00,Wunderground v.1.15,2013-09-08 05:06:00,
2013-09-08 00:09:00,80.3,64.7,29.88,SSW,203,5.0,-999.0,59,0.00,,,0.00,Wunderground v.1.15,2013-09-08 05:09:00,
2013-09-08 00:11:00,80.3,64.7,29.88,SSW,203,5.0,-999.0,59,0.00,,,0.00,Wunderground v.1.15,2013-09-08 05:11:00,
2013-09-08 00:14:00,80.3,64.7,29.88,SSW,203,5.0,-999.0,59,0.00,,,0.00,Wunderground v.1.15,2013-09-08 05:14:00,
2013-09-08 00:16:00,80.3,64.7,29.88,SSW,203,5.0,-999.0,59,0.00,,,0.00,Wunderground v.1.15,2013-09-08 05:16:00,
2013-09-08 00:19:00,80.3,64.7,29.88,SSW,203,5.0,-999.0,59,0.00,,,0.00,Wunderground v.1.15,2013-09-08 05:19:00,
2013-09-08 00:21:00,80.3,64.7,29.88,SSW,203,5.0,-999.0,59,0.00,,,0.00,Wunderground v.1.15,2013-09-08 05:21:00,
2013-09-08 00:24:00,79.7,64.6,29.88,SSW,203,5.0,-999.0,60,0.00,,,0.00,Wunderground v.1.15,2013-09-08 05:24:00,
2013-09-08 00:29:00,79.7,64.6,29.88,SSW,203,5.0,-999.0,60,0.00,,,0.00,Wunderground v.1.15,2013-09-08 05:29:00,
2013-09-08 00:33:00,79.7,64.6,29.88,SSW,203,5.0,-999.0,60,0.00,,,0.00,Wunderground v.1.15,2013-09-08 05:33:00,
2013-09-08 00:34:00,79.7,64.6,29.88,SSW,203,5.0,-999.0,60,0.00,,,0.00,Wunderground v.1.15,2013-09-08 05:34:00,
2013-09-08 00:39:00,79.0,64.4,29.88,SW,225,4.0,-999.0,61,0.00,,,0.00,Wunderground v.1.15,2013-09-08 05:39:00,
2013-09-08 00:44:00,79.0,64.4,29.88,SW,225,4.0,-999.0,61,0.00,,,0.00,Wunderground v.1.15,2013-09-08 05:44:00,
2013-09-08 00:55:00,78.8,64.7,29.88,SSW,207,4.0,4.0,62,0.00,,,0.00,Wunderground v.1.15,2013-09-08 05:55:00,
2013-09-08 01:02:00,78.5,64.4,29.88,SSW,210,4.0,4.0,62,0.00,,,0.00,Wunderground v.1.15,2013-09-08 06:02:00,
2013-09-08 01:12:00,78.4,64.3,29.89,South,177,3.0,4.0,62,0.00,,,0.00,Wunderground v.1.15,2013-09-08 06:12:00,
2013-09-08 01:22:00,78.4,64.3,29.89,SSW,210,4.0,5.0,62,0.00,,,0.00,Wunderground v.1.15,2013-09-08 06:22:00,
2013-09-08 01:32:00,77.9,64.3,29.89,SSW,200,4.0,4.0,63,0.00,,,0.00,Wunderground v.1.15,2013-09-08 06:32:00,
2013-09-08 01:42:00,77.7,64.5,29.89,SW,220,4.0,4.0,64,0.00,,,0.00,Wunderground v.1.15,2013-09-08 06:42:00,
2013-09-08 01:52:00,77.7,64.5,29.89,South,186,2.0,7.0,64,0.00,,,0.00,Wunderground v.1.15,2013-09-08 06:52:00,
2013-09-08 02:02:00,77.7,64.5,29.89,SSE,153,2.0,7.0,64,0.00,,,0.00,Wunderground v.1.15,2013-09-08 07:02:00,
2013-09-08 02:12:00,77.3,64.2,29.89,SSW,193,2.0,7.0,64,0.00,,,0.00,Wunderground v.1.15,2013-09-08 07:12:00,
2013-09-08 02:22:00,76.9,64.2,29.88,SSW,193,3.0,7.0,65,0.00,,,0.00,Wunderground v.1.15,2013-09-08 07:22:00,
2013-09-08 02:32:00,76.4,64.2,29.88,South,183,4.0,7.0,66,0.00,,,0.00,Wunderground v.1.15,2013-09-08 07:32:00,
2013-09-08 02:42:00,76.2,64.4,29.88,SSW,200,3.0,7.0,67,0.00,,,0.00,Wunderground v.1.15,2013-09-08 07:42:00,
2013-09-08 02:52:00,76.2,64.4,29.88,SSW,201,4.0,7.0,67,0.00,,,0.00,Wunderground v.1.15,2013-09-08 07:52:00,
2013-09-08 03:02:00,76.0,64.2,29.88,SSW,207,4.0,7.0,67,0.00,,,0.00,Wunderground v.1.15,2013-09-08 08:02:00,
2013-09-08 03:12:00,75.4,64.5,29.87,SW,219,4.0,4.0,69,0.00,,,0.00,Wunderground v.1.15,2013-09-08 08:12:00,
2013-09-08 03:22:00,75.3,64.4,29.87,SSW,207,4.0,7.0,69,0.00,,,0.00,Wunderground v.1.15,2013-09-08 08:22:00,
2013-09-08 03:32:00,75.1,64.2,29.87,SSW,212,5.0,5.0,69,0.00,,,0.00,Wunderground v.1.15,2013-09-08 08:32:00,
2013-09-08 03:42:00,75.0,64.5,29.87,SSW,193,4.0,4.0,70,0.00,,,0.00,Wunderground v.1.15,2013-09-08 08:42:00,
2013-09-08 03:52:00,74.8,64.4,29.87,SSW,210,3.0,7.0,70,0.00,,,0.00,Wunderground v.1.15,2013-09-08 08:52:00,
2013-09-08 04:02:00,74.7,64.3,29.87,SSW,203,4.0,7.0,70,0.00,,,0.00,Wunderground v.1.15,2013-09-08 09:02:00,
2013-09-08 04:12:00,74.6,64.2,29.87,SSW,207,4.0,4.0,70,0.00,,,0.00,Wunderground v.1.15,2013-09-08 09:12:00,
2013-09-08 04:22:00,74.6,64.2,29.88,South,188,3.0,3.0,70,0.00,,,0.00,Wunderground v.1.15,2013-09-08 09:22:00,
2013-09-08 04:32:00,74.4,64.0,29.88,SSE,163,3.0,3.0,70,0.00,,,0.00,Wunderground v.1.15,2013-09-08 09:32:00,
2013-09-08 04:42:00,74.1,64.1,29.88,South,186,2.0,7.0,71,0.00,,,0.00,Wunderground v.1.15,2013-09-08 09:42:00,
2013-09-08 04:52:00,73.5,63.9,29.88,SSE,148,2.0,7.0,72,0.00,,,0.00,Wunderground v.1.15,2013-09-08 09:52:00,
2013-09-08 05:02:00,73.1,63.9,29.87,South,184,2.0,7.0,73,0.00,,,0.00,Wunderground v.1.15,2013-09-08 10:02:00,
2013-09-08 05:12:00,72.3,63.9,29.87,SE,143,1.0,7.0,75,0.00,,,0.00,Wunderground v.1.15,2013-09-08 10:12:00,
2013-09-08 05:22:00,71.7,63.4,29.87,SE,137,1.0,7.0,75,0.00,,,0.00,Wunderground v.1.15,2013-09-08 10:22:00,
2013-09-08 05:32:00,71.3,63.3,29.88,SE,134,1.0,7.0,76,0.00,,,0.00,Wunderground v.1.15,2013-09-08 10:32:00,
2013-09-08 05:42:00,70.5,63.3,29.88,SE,131,2.0,7.0,78,0.00,,,0.00,Wunderground v.1.15,2013-09-08 10:42:00,
2013-09-08 05:52:00,70.2,63.4,29.88,SE,142,2.0,7.0,79,0.00,,,0.00,Wunderground v.1.15,2013-09-08 10:52:00,
2013-09-08 06:02:00,70.3,63.5,29.88,SE,145,2.0,7.0,79,0.00,,,0.00,Wunderground v.1.15,2013-09-08 11:02:00,
2013-09-08 06:12:00,70.1,63.6,29.88,SSE,165,2.0,7.0,80,0.00,,,0.00,Wunderground v.1.15,2013-09-08 11:12:00,
2013-09-08 06:22:00,70.7,63.9,29.88,SSE,159,3.0,7.0,79,0.00,,,0.00,Wunderground v.1.15,2013-09-08 11:22:00,
2013-09-08 06:32:00,70.7,63.9,29.89,ESE,121,3.0,3.0,79,0.00,,,0.00,Wunderground v.1.15,2013-09-08 11:32:00,
2013-09-08 06:42:00,70.6,63.8,29.89,SW,217,3.0,7.0,79,0.00,,,0.00,Wunderground v.1.15,2013-09-08 11:42:00,
2013-09-08 06:52:00,70.7,63.9,29.89,SE,141,3.0,3.0,79,0.00,,,0.00,Wunderground v.1.15,2013-09-08 11:52:00,
2013-09-08 07:02:00,70.5,63.7,29.88,SE,146,2.0,2.0,79,0.00,,,0.00,Wunderground v.1.15,2013-09-08 12:02:00,
2013-09-08 07:12:00,70.2,63.7,29.88,SE,144,1.0,1.0,80,0.00,,,0.00,Wunderground v.1.15,2013-09-08 12:12:00,
2013-09-08 07:22:00,70.3,63.8,29.88,SSE,153,0.0,7.0,80,0.00,,,0.00,Wunderground v.1.15,2013-09-08 12:22:00,
2013-09-08 07:32:00,70.0,63.5,29.88,ESE,108,1.0,7.0,80,0.00,,,0.00,Wunderground v.1.15,2013-09-08 12:32:00,
2013-09-08 07:42:00,70.6,64.1,29.89,ESE,121,3.0,7.0,80,0.00,,,0.00,Wunderground v.1.15,2013-09-08 12:42:00,
2013-09-08 07:52:00,71.2,64.4,29.89,ESE,121,2.0,7.0,79,0.00,,,0.00,Wunderground v.1.15,2013-09-08 12:52:00,
2013-09-08 08:02:00,72.0,65.1,29.89,SE,132,2.0,7.0,79,0.00,,,0.00,Wunderground v.1.15,2013-09-08 13:02:00,
2013-09-08 08:12:00,73.6,65.6,29.88,SSW,201,2.0,2.0,76,0.00,,,0.00,Wunderground v.1.15,2013-09-08 13:12:00,
2013-09-08 08:22:00,74.9,65.7,29.88,SSW,211,2.0,7.0,73,0.00,,,0.00,Wunderground v.1.15,2013-09-08 13:22:00,
2013-09-08 08:32:00,75.6,65.9,29.88,SW,217,4.0,7.0,72,0.00,,,0.00,Wunderground v.1.15,2013-09-08 13:32:00,
2013-09-08 08:42:00,76.1,66.0,29.88,SSW,212,5.0,8.0,71,0.00,,,0.00,Wunderground v.1.15,2013-09-08 13:42:00,
2013-09-08 08:52:00,76.7,66.2,29.88,SW,225,6.0,6.0,70,0.00,,,0.00,Wunderground v.1.15,2013-09-08 13:52:00,
2013-09-08 09:02:00,77.5,66.1,29.88,SW,231,5.0,5.0,68,0.00,,,0.00,Wunderground v.1.15,2013-09-08 14:02:00,
2013-09-08 09:12:00,78.9,66.6,29.88,SW,232,4.0,7.0,66,0.00,,,0.00,Wunderground v.1.15,2013-09-08 14:12:00,
2013-09-08 09:22:00,80.2,66.5,29.88,WSW,255,4.0,7.0,63,0.00,,,0.00,Wunderground v.1.15,2013-09-08 14:22:00,
2013-09-08 09:32:00,80.9,66.2,29.89,SW,230,5.0,8.0,61,0.00,,,0.00,Wunderground v.1.15,2013-09-08 14:32:00,
2013-09-08 09:42:00,81.4,67.1,29.88,SW,216,6.0,7.0,62,0.00,,,0.00,Wunderground v.1.15,2013-09-08 14:42:00,
2013-09-08 09:52:00,82.1,66.8,29.88,SSW,204,7.0,8.0,60,0.00,,,0.00,Wunderground v.1.15,2013-09-08 14:52:00,
2013-09-08 10:02:00,83.1,66.8,29.89,SW,228,7.0,7.0,58,0.00,,,0.00,Wunderground v.1.15,2013-09-08 15:02:00,
2013-09-08 10:12:00,84.1,66.7,29.88,WSW,239,6.0,7.0,56,0.00,,,0.00,Wunderground v.1.15,2013-09-08 15:12:00,
2013-09-08 10:22:00,85.1,67.1,29.88,SSW,208,7.0,7.0,55,0.00,,,0.00,Wunderground v.1.15,2013-09-08 15:22:00,
2013-09-08 10:32:00,86.3,66.6,29.88,WSW,246,6.0,7.0,52,0.00,,,0.00,Wunderground v.1.15,2013-09-08 15:32:00,
2013-09-08 10:42:00,87.0,67.8,29.88,WSW,248,6.0,7.0,53,0.00,,,0.00,Wunderground v.1.15,2013-09-08 15:42:00,
2013-09-08 10:52:00,87.9,67.5,29.88,SSW,194,5.0,7.0,51,0.00,,,0.00,Wunderground v.1.15,2013-09-08 15:52:00,
2013-09-08 11:02:00,88.7,67.7,29.88,WNW,288,6.0,8.0,50,0.00,,,0.00,Wunderground v.1.15,2013-09-08 16:02:00,
2013-09-08 11:12:00,89.4,66.5,29.87,WSW,239,7.0,7.0,47,0.00,,,0.00,Wunderground v.1.15,2013-09-08 16:12:00,
2013-09-08 11:22:00,89.8,66.3,29.87,SW,219,7.0,7.0,46,0.00,,,0.00,Wunderground v.1.15,2013-09-08 16:22:00,
2013-09-08 11:32:00,90.3,67.3,29.87,WSW,253,7.0,11.0,47,0.00,,,0.00,Wunderground v.1.15,2013-09-08 16:32:00,
2013-09-08 11:42:00,91.0,66.7,29.87,SSW,201,6.0,6.0,45,0.00,,,0.00,Wunderground v.1.15,2013-09-08 16:42:00,
2013-09-08 11:52:00,92.2,67.8,29.87,South,181,6.0,6.0,45,0.00,,,0.00,Wunderground v.1.15,2013-09-08 16:52:00,
2013-09-08 12:02:00,92.7,66.2,29.87,West,276,6.0,7.0,42,0.00,,,0.00,Wunderground v.1.15,2013-09-08 17:02:00,
2013-09-08 12:12:00,93.4,66.9,29.87,South,183,6.0,7.0,42,0.00,,,0.00,Wunderground v.1.15,2013-09-08 17:12:00,
2013-09-08 12:22:00,94.0,66.7,29.86,SSW,200,6.0,6.0,41,0.00,,,0.00,Wunderground v.1.15,2013-09-08 17:22:00,
2013-09-08 12:32:00,94.6,66.5,29.86,South,187,7.0,7.0,40,0.00,,,0.00,Wunderground v.1.15,2013-09-08 17:32:00,
2013-09-08 12:42:00,94.9,65.3,29.86,South,190,9.0,9.0,38,0.00,,,0.00,Wunderground v.1.15,2013-09-08 17:42:00,
2013-09-08 12:52:00,95.3,65.7,29.86,WSW,245,8.0,8.0,38,0.00,,,0.00,Wunderground v.1.15,2013-09-08 17:52:00,
2013-09-08 13:02:00,95.8,64.6,29.85,South,177,8.0,10.0,36,0.00,,,0.00,Wunderground v.1.15,2013-09-08 18:02:00,
2013-09-08 13:12:00,96.0,64.7,29.85,South,187,8.0,8.0,36,0.00,,,0.00,Wunderground v.1.15,2013-09-08 18:12:00,
2013-09-08 13:22:00,96.4,63.5,29.85,SW,218,9.0,9.0,34,0.00,,,0.00,Wunderground v.1.15,2013-09-08 18:22:00,
2013-09-08 13:32:00,96.9,64.7,29.84,SW,233,7.0,7.0,35,0.00,,,0.00,Wunderground v.1.15,2013-09-08 18:32:00,
2013-09-08 13:42:00,97.6,64.5,29.84,SSW,201,7.0,7.0,34,0.00,,,0.00,Wunderground v.1.15,2013-09-08 18:42:00,
2013-09-08 13:52:00,97.9,63.9,29.84,SSW,201,7.0,13.0,33,0.00,,,0.00,Wunderground v.1.15,2013-09-08 18:52:00,
2013-09-08 14:02:00,98.8,62.9,29.84,SSW,200,6.0,11.0,31,0.00,,,0.00,Wunderground v.1.15,2013-09-08 19:02:00,
2013-09-08 14:12:00,98.1,63.2,29.84,SW,216,9.0,13.0,32,0.00,,,0.00,Wunderground v.1.15,2013-09-08 19:12:00,
2013-09-08 14:22:00,98.7,62.8,29.83,SSW,203,7.0,7.0,31,0.00,,,0.00,Wunderground v.1.15,2013-09-08 19:22:00,
2013-09-08 14:32:00,98.2,63.3,29.83,WSW,242,9.0,9.0,32,0.00,,,0.00,Wunderground v.1.15,2013-09-08 19:32:00,
2013-09-08 14:41:00,98.5,62.6,29.83,SSW,194,8.0,15.0,31,0.00,,,0.00,Wunderground v.1.15,2013-09-08 19:41:00,
2013-09-08 14:52:00,99.0,64.0,29.82,SSW,207,8.0,8.0,32,0.00,,,0.00,Wunderground v.1.15,2013-09-08 19:52:00,
2013-09-08 15:02:00,98.7,61.9,29.82,WSW,237,9.0,10.0,30,0.00,,,0.00,Wunderground v.1.15,2013-09-08 20:02:00,
2013-09-08 15:12:00,99.2,63.3,29.82,WSW,240,6.0,11.0,31,0.00,,,0.00,Wunderground v.1.15,2013-09-08 20:12:00,
2013-09-08 15:22:00,98.8,62.9,29.81,SE,131,9.0,9.0,31,0.00,,,0.00,Wunderground v.1.15,2013-09-08 20:22:00,
2013-09-08 15:32:00,99.3,62.4,29.81,SW,236,8.0,8.0,30,0.00,,,0.00,Wunderground v.1.15,2013-09-08 20:32:00,
2013-09-08 15:42:00,98.9,62.1,29.80,SW,226,10.0,10.0,30,0.00,,,0.00,Wunderground v.1.15,2013-09-08 20:42:00,
2013-09-08 15:52:00,99.0,59.2,29.80,SSE,148,10.0,10.0,27,0.00,,,0.00,Wunderground v.1.15,2013-09-08 20:52:00,
2013-09-08 16:02:00,99.2,62.3,29.80,WSW,249,9.0,9.0,30,0.00,,,0.00,Wunderground v.1.15,2013-09-08 21:02:00,
2013-09-08 16:12:00,99.1,62.2,29.80,SSE,160,9.0,9.0,30,0.00,,,0.00,Wunderground v.1.15,2013-09-08 21:12:00,
2013-09-08 16:22:00,99.3,61.4,29.80,SSW,210,9.0,15.0,29,0.00,,,0.00,Wunderground v.1.15,2013-09-08 21:22:00,
2013-09-08 16:32:00,99.3,61.4,29.79,SW,225,10.0,10.0,29,0.00,,,0.00,Wunderground v.1.15,2013-09-08 21:32:00,
2013-09-08 16:42:00,99.0,62.1,29.79,SW,215,10.0,10.0,30,0.00,,,0.00,Wunderground v.1.15,2013-09-08 21:42:00,
2013-09-08 16:52:00,98.9,61.1,29.79,SW,217,10.0,16.0,29,0.00,,,0.00,Wunderground v.1.15,2013-09-08 21:52:00,
2013-09-08 17:02:00,98.4,60.7,29.79,SSW,195,11.0,11.0,29,0.00,,,0.00,Wunderground v.1.15,2013-09-08 22:02:00,
2013-09-08 17:12:00,98.5,60.8,29.79,South,173,9.0,9.0,29,0.00,,,0.00,Wunderground v.1.15,2013-09-08 22:12:00,
2013-09-08 17:22:00,98.8,60.0,29.79,SSW,208,8.0,12.0,28,0.00,,,0.00,Wunderground v.1.15,2013-09-08 22:22:00,
2013-09-08 17:32:00,98.4,60.7,29.79,SSW,198,10.0,10.0,29,0.00,,,0.00,Wunderground v.1.15,2013-09-08 22:32:00,
2013-09-08 17:42:00,98.4,60.7,29.79,South,188,9.0,13.0,29,0.00,,,0.00,Wunderground v.1.15,2013-09-08 22:42:00,
2013-09-08 17:52:00,98.0,60.3,29.79,SSW,203,10.0,10.0,29,0.00,,,0.00,Wunderground v.1.15,2013-09-08 22:52:00,
2013-09-08 18:02:00,97.8,61.1,29.78,SSW,212,9.0,9.0,30,0.00,,,0.00,Wunderground v.1.15,2013-09-08 23:02:00,
2013-09-08 18:12:00,97.3,60.7,29.78,SSW,203,10.0,10.0,30,0.00,,,0.00,Wunderground v.1.15,2013-09-08 23:12:00,
2013-09-08 18:22:00,97.0,60.4,29.78,SE,127,8.0,8.0,30,0.00,,,0.00,Wunderground v.1.15,2013-09-08 23:22:00,
2013-09-08 18:32:00,96.5,60.9,29.78,South,177,9.0,10.0,31,0.00,,,0.00,Wunderground v.1.15,2013-09-08 23:32:00,
2013-09-08 18:42:00,95.9,61.3,29.78,South,188,9.0,9.0,32,0.00,,,0.00,Wunderground v.1.15,2013-09-08 23:42:00,
2013-09-08 18:52:00,95.5,61.8,29.78,South,191,7.0,7.0,33,0.00,,,0.00,Wunderground v.1.15,2013-09-08 23:52:00,
2013-09-08 19:02:00,94.9,61.3,29.78,South,179,8.0,8.0,33,0.00,,,0.00,Wunderground v.1.15,2013-09-09 00:02:00,
2013-09-08 19:12:00,94.5,61.8,29.79,SSW,196,8.0,8.0,34,0.00,,,0.00,Wunderground v.1.15,2013-09-09 00:12:00,
2013-09-08 19:22:00,93.8,61.2,29.79,SSW,193,6.0,6.0,34,0.00,,,0.00,Wunderground v.1.15,2013-09-09 00:22:00,
2013-09-08 19:32:00,92.8,61.1,29.79,SSE,160,5.0,7.0,35,0.00,,,0.00,Wunderground v.1.15,2013-09-09 00:32:00,
2013-09-08 19:42:00,91.6,61.6,29.79,SSE,156,5.0,5.0,37,0.00,,,0.00,Wunderground v.1.15,2013-09-09 00:42:00,
2013-09-08 19:52:00,90.5,61.4,29.80,South,185,5.0,5.0,38,0.00,,,0.00,Wunderground v.1.15,2013-09-09 00:52:00,
2013-09-08 20:02:00,89.7,61.5,29.80,SSE,156,5.0,5.0,39,0.00,,,0.00,Wunderground v.1.15,2013-09-09 01:02:00,
2013-09-08 20:12:00,89.1,62.3,29.80,SE,136,5.0,5.0,41,0.00,,,0.00,Wunderground v.1.15,2013-09-09 01:12:00,
2013-09-08 20:22:00,88.8,62.1,29.80,SSW,204,7.0,10.0,41,0.00,,,0.00,Wunderground v.1.15,2013-09-09 01:22:00,
2013-09-08 20:32:00,88.5,61.8,29.80,South,187,8.0,9.0,41,0.00,,,0.00,Wunderground v.1.15,2013-09-09 01:32:00,
2013-09-08 20:42:00,88.0,62.0,29.80,South,191,8.0,8.0,42,0.00,,,0.00,Wunderground v.1.15,2013-09-09 01:42:00,
2013-09-08 20:52:00,87.6,62.3,29.81,South,184,8.0,8.0,43,0.00,,,0.00,Wunderground v.1.15,2013-09-09 01:52:00,
2013-09-08 21:02:00,87.0,61.8,29.81,SSW,198,8.0,11.0,43,0.00,,,0.00,Wunderground v.1.15,2013-09-09 02:02:00,
2013-09-08 21:12:00,86.4,61.9,29.81,SSE,156,7.0,7.0,44,0.00,,,0.00,Wunderground v.1.15,2013-09-09 02:12:00,
2013-09-08 21:22:00,85.9,62.1,29.81,SSW,194,8.0,9.0,45,0.00,,,0.00,Wunderground v.1.15,2013-09-09 02:22:00,
2013-09-08 21:32:00,85.7,61.9,29.82,SSW,204,8.0,8.0,45,0.00,,,0.00,Wunderground v.1.15,2013-09-09 02:32:00,
2013-09-08 21:41:00,85.4,62.3,29.82,SSW,204,8.0,8.0,46,0.00,,,0.00,Wunderground v.1.15,2013-09-09 02:41:00,
2013-09-08 21:52:00,84.9,62.4,29.82,SSW,207,7.0,7.0,47,0.00,,,0.00,Wunderground v.1.15,2013-09-09 02:52:00,
2013-09-08 22:02:00,84.6,62.1,29.82,SSE,160,8.0,10.0,47,0.00,,,0.00,Wunderground v.1.15,2013-09-09 03:02:00,
2013-09-08 22:12:00,84.2,62.4,29.83,SSW,198,8.0,10.0,48,0.00,,,0.00,Wunderground v.1.15,2013-09-09 03:12:00,
2013-09-08 22:22:00,83.9,62.7,29.83,SSW,208,9.0,13.0,49,0.00,,,0.00,Wunderground v.1.15,2013-09-09 03:22:00,
2013-09-08 22:32:00,83.6,62.4,29.83,South,170,8.0,8.0,49,0.00,,,0.00,Wunderground v.1.15,2013-09-09 03:32:00,
2013-09-08 22:42:00,83.4,62.2,29.83,SSW,200,9.0,12.0,49,0.00,,,0.00,Wunderground v.1.15,2013-09-09 03:42:00,
2013-09-08 22:52:00,83.2,62.1,29.84,SSW,207,9.0,9.0,49,0.00,,,0.00,Wunderground v.1.15,2013-09-09 03:52:00,
2013-09-08 23:02:00,83.0,61.9,29.84,SSW,204,10.0,10.0,49,0.00,,,0.00,Wunderground v.1.15,2013-09-09 04:02:00,
2013-09-08 23:12:00,82.7,62.2,29.84,SSW,210,9.0,9.0,50,0.00,,,0.00,Wunderground v.1.15,2013-09-09 04:12:00,
2013-09-08 23:22:00,82.4,61.9,29.85,South,181,8.0,8.0,50,0.00,,,0.00,Wunderground v.1.15,2013-09-09 04:22:00,
2013-09-08 23:32:00,82.1,61.6,29.85,SSW,195,8.0,8.0,50,0.00,,,0.00,Wunderground v.1.15,2013-09-09 04:32:00,
2013-09-08 23:42:00,81.7,61.8,29.85,South,180,8.0,8.0,51,0.00,,,0.00,Wunderground v.1.15,2013-09-09 04:42:00,
2013-09-08 23:52:00,81.3,61.4,29.85,South,190,7.0,7.0,51,0.00,,,0.00,Wunderground v.1.15,2013-09-09 04:52:00,